Location: Central Falls
(41.8900°N, 71.3929°W)
Time: 03:21:19
(UTC+00:00)

Vanguard 2 Rocket - Pass Details

Date: 11 December 2023
Orbit: 555 x 3309 km, 32.9° (Epoch: 01 March)

Event Time Altitude Azimuth Distance (km) Brightness Sun altitude
Rises 01:41:25 0° 277° (W) 7,288 12.2 -48.7°
Reaches altitude 10° 01:50:22 10° 257° (WSW) 6,053 11.5 -50.3°
Maximum altitude 01:57:46 14° 233° (SW) 5,361 11.0 -51.6°
Drops below altitude 10° 02:04:21 10° 208° (SSW) 5,211 10.8 -52.8°
Enters shadow 02:08:48 - 192° (SSW) 5,429 10.8 -53.6°
Sets 02:10:54 0° 185° (S) 5,619 - -54.0°
